[[{"header":{"parameterUnit":"m.s-1","parameterCategory":1,"la1":30.2991,"la2":30.254,"lo1":-89.0895,"lo2":-89.0444,"dy":0.0017,"dx":0.0017,"nx":28,"ny":28,"refTime":"2024-04-24T03:00:00:Z","depth":0,"parameterNumber":2,"parameterNumberName":"U-component_of_WINDS"},"data":[0,0,0,0,0,0,0,0,0,0,0,0,0,0,0,0,0,0,0,0,0,0,0,0,0,0,0,0,0,0,0,0,0,0,0,0,0,0,0,0,0,0,0,0,0,0,0,0,0,0,0,0,0,0,0,0,0,0,-0.9438,-0.9438,0,-0.944,-0.944,-0.944,-0.9434,-0.9433,-0.9433,-0.9433,-0.9435,-0.9435,-0.9435,0,0,0,0,0,0,0,0,0,0,0,0,0,-0.943,-0.943,-0.9438,-0.9438,-0.9438,-0.944,-0.944,-0.944,-0.9434,-0.9433,-0.9433,-0.9433,-0.9435,-0.9435,-0.9435,0,0,0,0,0,0,0,0,0,0,0,0,0,-0.9433,-0.943,-0.9438,-0.9435,-0.9435,-0.944,-0.944,-0.944,-0.9434,-0.9433,-0.9433,-0.9433,-0.9435,-0.9435,-0.9435,-0.9443,0,0,-0.9436,-0.9436,0,0,0,0,0,0,0,0,-0.9433,-0.9433,-0.9436,-0.9435,-0.9435,-0.9436,-0.9438,-0.9441,-0.9434,-0.9434,-0.9433,-0.9433,-0.9435,-0.9436,-0.9437,-0.9443,-0.9443,-0.9436,-0.9436,-0.9437,-0.9437,0,0,0,0,0,0,0,-0.9432,-0.9433,-0.9439,-0.9436,-0.9435,-0.9434,-0.9434,-0.9438,-0.9436,-0.9434,-0.9434,-0.9434,-0.9435,-0.9436,-0.9437,-0.9443,-0.9436,-0.9437,-0.9437,-0.9437,-0.9457,-0.9457,0,0,0,0,0,0,-0.9433,-0.9433,-0.9439,-0.9439,-0.9433,-0.9434,-0.9434,-0.9436,-0.9436,-0.9436,-0.9434,-0.9434,-0.9436,-0.9436,-0.9437,-0.9446,-0.9437,-0.9437,-0.9437,-0.9457,-0.9457,-0.9458,0,0,0,0,0,0,-0.9432,-0.9433,-0.9439,-0.9436,-0.9436,-0.9435,-0.9437,-0.9436,-0.9437,-0.9436,-0.9436,-0.9436,-0.9436,-0.9436,-0.9442,-0.9446,-0.9437,-0.9437,-0.9456,-0.9457,-0.9457,-0.9465,0,0,0,0,0,0,-0.9432,-0.9433,-0.9436,-0.9436,-0.9437,-0.9444,-0.9437,-0.9437,-0.9438,-0.9437,-0.9438,-0.9437,-0.9435,-0.9441,-0.9442,-0.9447,-0.9438,-0.9456,-0.9457,-0.9457,-0.9465,-0.9466,-0.9467,0,0,0,0,0,-0.9432,-0.9438,-0.9436,-0.9437,-0.944,-0.9444,-0.9444,-0.9442,-0.9438,-0.9441,-0.9441,-0.9437,-0.9446,-0.9442,-0.9443,-0.9447,-0.9456,-0.9456,-0.9457,-0.9464,-0.9466,-0.9467,0,0,0,0,0,0,-0.9438,-0.9438,-0.9436,-0.9442,-0.9443,-0.9443,-0.9446,-0.9444,-0.9446,-0.9445,-0.9442,-0.9442,-0.9448,-0.9448,-0.9444,-0.9455,-0.945,-0.9451,-0.9455,-0.9457,-0.9458,-0.9458,-0.9438,0,0,0,0,0,-0.9441,-0.9444,-0.9443,-0.9449,-0.9449,-0.9448,-0.9449,-0.9448,-0.9449,-0.9449,-0.9449,-0.945,-0.9453,-0.9455,-0.9457,-0.9465,-0.9465,-0.9468,-0.947,-0.9471,-0.9472,-0.9476,-0.9478,-0.946,-0.946,-0.946,0,0,-0.9445,-0.9445,-0.9447,-0.945,-0.9451,-0.9454,-0.9448,-0.9452,-0.9455,-0.945,-0.9455,-0.9455,-0.9456,-0.9463,-0.9465,-0.9463,-0.9477,-0.9472,-0.9473,-0.9473,-0.9477,-0.9479,-0.948,-0.946,-0.946,-0.946,0,0,-0.9455,-0.9455,-0.946,-0.9461,-0.9462,-0.9461,-0.9462,-0.9463,-0.9463,-0.9468,-0.9464,-0.9467,-0.9472,-0.9473,-0.9475,-0.9486,-0.9483,-0.9487,-0.9493,-0.9498,-0.9499,-0.95,-0.9505,-0.9506,-0.9488,-0.9488,-0.9488,0,-0.946,-0.9465,-0.9463,-0.9467,-0.9469,-0.9465,-0.947,-0.9471,-0.9472,-0.9474,-0.9471,-0.9477,-0.9478,-0.9485,-0.9488,-0.9489,-0.949,-0.9487,-0.9499,-0.95,-0.9501,-0.9505,-0.9507,-0.9488,-0.9488,-0.9488,-0.9488,0,-0.9472,-0.9476,-0.9479,-0.9482,-0.9484,-0.9488,-0.9487,-0.9489,-0.9487,-0.9487,-0.9493,-0.9493,-0.9496,-0.9498,-0.9496,-0.9504,-0.9503,-0.95,-0.9494,-0.9504,-0.9507,-0.9509,-0.9489,-0.9489,-0.9489,-0.9488,0,0,-0.9486,-0.9487,-0.9488,-0.9489,-0.9491,-0.9493,-0.9498,-0.9501,-0.9503,-0.9505,-0.9509,-0.9514,-0.9511,-0.9512,-0.9511,-0.9514,-0.9524,-0.9511,-0.9511,-0.9513,-0.9534,-0.9536,-0.9538,-0.9522,-0.9522,-0.9522,-0.9534,0,-0.9495,-0.9503,-0.9502,-0.9509,-0.9513,-0.951,-0.9514,-0.9515,-0.9515,-0.9518,-0.9518,-0.9521,-0.9517,-0.9518,-0.9522,-0.9522,-0.9528,-0.9521,-0.9526,-0.9526,-0.9525,-0.954,-0.9542,-0.9553,-0.9535,-0.9535,-0.9535,0,-0.9508,-0.951,-0.9518,-0.952,-0.9521,-0.9525,-0.9528,-0.953,-0.9532,-0.9532,-0.9534,-0.9532,-0.9537,-0.9532,-0.9539,-0.9534,-0.9536,-0.9536,-0.9537,-0.9537,-0.9531,-0.954,-0.9556,-0.9558,-0.9538,-0.9537,-0.9537,0,-0.9517,-0.9522,-0.9528,-0.9529,-0.9531,-0.9533,-0.9534,-0.9536,-0.9538,-0.954,-0.9542,-0.9545,-0.9546,-0.9549,-0.9548,-0.9544,-0.9555,-0.955,-0.9555,-0.9555,-0.9558,-0.9557,-0.9574,-0.9559,-0.9559,-0.9559,-0.9559,0,-0.9528,-0.9533,-0.9532,-0.9536,-0.9542,-0.954,-0.9546,-0.9546,-0.9548,-0.9551,-0.9549,-0.9552,-0.9551,-0.9554,-0.9554,-0.956,-0.956,-0.9561,-0.956,-0.9561,-0.9561,-0.9562,-0.9561,-0.9559,-0.9559,-0.9559,-0.9559,0,-0.9539,-0.9539,-0.9545,-0.9546,-0.9546,-0.9551,-0.9552,-0.9555,-0.9555,-0.956,-0.9561,-0.9561,-0.9565,-0.9564,-0.9569,-0.9568,-0.9576,-0.9575,-0.9575,-0.9575,-0.9581,-0.958,-0.9598,-0.9601,-0.9584,-0.9584,-0.9584,0,-0.9547,-0.9551,-0.9552,-0.9555,-0.9556,-0.9559,-0.9561,-0.956,-0.9563,-0.9565,-0.9568,-0.9572,-0.9575,-0.9582,-0.9583,-0.9586,-0.9585,-0.9591,-0.9586,-0.9586,-0.9586,-0.9585,-0.9586,-0.9592,-0.9593,-0.9593,-0.9593,0,-0.9559,-0.9559,-0.9562,-0.9566,-0.9568,-0.9571,-0.9573,-0.9575,-0.9574,-0.9577,-0.9581,-0.9584,-0.9589,-0.9593,-0.9596,-0.9597,-0.9595,-0.9595,-0.9596,-0.9597,-0.9597,-0.9597,-0.9578,-0.9594,-0.9594,-0.9594,-0.9594,-0.9594,-0.9569,-0.9573,-0.9574,-0.9578,-0.958,-0.9582,-0.9585,-0.9586,-0.9589,-0.9593,-0.9592,-0.9597,-0.96,-0.9604,-0.9606,-0.961,-0.9607,-0.9609,-0.961,-0.961,-0.9611,-0.9596,-0.961,-0.961,-0.961,-0.961,-0.961,0,-0.9582,-0.9583,-0.9587,-0.959,-0.9593,-0.9591,-0.9593,-0.9596,-0.96,-0.9603,-0.9606,-0.9611,-0.9615,-0.9616,-0.962,-0.9623,-0.9622,-0.9624,-0.9624,-0.9624,-0.9613,-0.9611,-0.9625,-0.9625,-0.9625,-0.9625,-0.9625,-0.9625,-0.9589,-0.9595,-0.9595,-0.9602,-0.9603,-0.9608,-0.9609,-0.9612,-0.9613,-0.9619,-0.9623,-0.9623,-0.9625,-0.9629,-0.9633,-0.9633,-0.9635,-0.9638,-0.9637,-0.9627,-0.9625,-0.9624,-0.9622,-0.9638,-0.9638,-0.9648,-0.9649,-0.9649]},{"header":{"parameterUnit":"m.s-1","parameterCategory":1,"la1":30.2991,"la2":30.254,"lo1":-89.0895,"lo2":-89.0444,"dy":0.0017,"dx":0.0017,"nx":28,"ny":28,"refTime":"2024-04-24T03:00:00:Z","depth":0,"parameterNumber":3,"parameterNumberName":"V-component_of_WINDS"},"data":[0,0,0,0,0,0,0,0,0,0,0,0,0,0,0,0,0,0,0,0,0,0,0,0,0,0,0,0,0,0,0,0,0,0,0,0,0,0,0,0,0,0,0,0,0,0,0,0,0,0,0,0,0,0,0,0,0,0,0.17,0.17,0,0.1701,0.1701,0.1701,0.1705,0.1705,0.1705,0.1705,0.1705,0.1704,0.1704,0,0,0,0,0,0,0,0,0,0,0,0,0,0.1701,0.1701,0.17,0.17,0.17,0.1701,0.1701,0.1701,0.1705,0.1705,0.1705,0.1705,0.1705,0.1704,0.1704,0,0,0,0,0,0,0,0,0,0,0,0,0,0.1701,0.1701,0.17,0.1702,0.1702,0.1701,0.1701,0.1701,0.1705,0.1705,0.1705,0.1705,0.1705,0.1704,0.1704,0.1701,0,0,0.1704,0.1704,0,0,0,0,0,0,0,0,0.1701,0.1701,0.1702,0.1702,0.1702,0.1703,0.1701,0.1701,0.1705,0.1704,0.1705,0.1705,0.1704,0.1704,0.1704,0.1701,0.1701,0.1704,0.1704,0.1704,0.1704,0,0,0,0,0,0,0,0.1701,0.1701,0.1701,0.1702,0.1702,0.1703,0.1703,0.1701,0.1703,0.1704,0.1704,0.1704,0.1704,0.1704,0.1704,0.1701,0.1704,0.1704,0.1704,0.1704,0.1695,0.1695,0,0,0,0,0,0,0.1701,0.1701,0.1701,0.1701,0.1702,0.1703,0.1703,0.1703,0.1703,0.1703,0.1704,0.1704,0.1704,0.1704,0.1704,0.17,0.1704,0.1704,0.1704,0.1696,0.1695,0.1695,0,0,0,0,0,0,0.1701,0.1701,0.1701,0.1701,0.1701,0.1703,0.1702,0.1703,0.1702,0.1703,0.1703,0.1704,0.1704,0.1704,0.1702,0.17,0.1704,0.1703,0.1696,0.1695,0.1695,0.1692,0,0,0,0,0,0,0.1701,0.1701,0.17,0.1701,0.1701,0.1699,0.1702,0.1702,0.1702,0.1703,0.1703,0.1703,0.1704,0.1702,0.1701,0.17,0.1703,0.1696,0.1696,0.1695,0.1692,0.1691,0.1691,0,0,0,0,0,0.1701,0.1699,0.17,0.17,0.17,0.1699,0.1699,0.17,0.1702,0.1701,0.1701,0.1703,0.17,0.1702,0.1701,0.1699,0.1696,0.1696,0.1695,0.1692,0.1691,0.1691,0,0,0,0,0,0,0.1697,0.1699,0.17,0.1698,0.1698,0.1699,0.1698,0.1699,0.1699,0.1699,0.1701,0.1701,0.1699,0.1699,0.17,0.1696,0.1698,0.1698,0.1696,0.1695,0.1695,0.1695,0.1703,0,0,0,0,0,0.1695,0.1695,0.1696,0.1694,0.1694,0.1696,0.1696,0.1697,0.1697,0.1697,0.1698,0.1698,0.1697,0.1696,0.1695,0.1692,0.1692,0.1691,0.169,0.169,0.1689,0.1688,0.1687,0.1694,0.1694,0.1694,0,0,0.1693,0.1694,0.1693,0.1693,0.1694,0.1693,0.1696,0.1695,0.1694,0.1697,0.1695,0.1695,0.1695,0.1693,0.1692,0.1693,0.1687,0.1689,0.1689,0.1689,0.1687,0.1687,0.1686,0.1694,0.1694,0.1694,0,0,0.1687,0.1688,0.1686,0.1687,0.1688,0.1689,0.1689,0.169,0.169,0.1688,0.1691,0.169,0.1688,0.1688,0.1688,0.1683,0.1685,0.1683,0.168,0.1678,0.1678,0.1677,0.1676,0.1675,0.1682,0.1682,0.1682,0,0.1684,0.1683,0.1685,0.1684,0.1684,0.1687,0.1685,0.1686,0.1686,0.1686,0.1687,0.1686,0.1686,0.1683,0.1682,0.1682,0.1682,0.1683,0.1678,0.1677,0.1677,0.1675,0.1675,0.1682,0.1682,0.1682,0.1682,0,0.1679,0.1678,0.1676,0.1677,0.1677,0.1676,0.1678,0.1677,0.1679,0.168,0.1678,0.1678,0.1678,0.1677,0.1679,0.1675,0.1676,0.1678,0.168,0.1676,0.1675,0.1674,0.1682,0.1682,0.1682,0.1682,0,0,0.167,0.1673,0.1672,0.1673,0.1674,0.1673,0.1672,0.1672,0.1672,0.1672,0.1671,0.167,0.1671,0.1671,0.1672,0.1671,0.1667,0.1673,0.1673,0.1672,0.1664,0.1663,0.1662,0.1669,0.1668,0.1668,0.1664,0,0.1665,0.1663,0.1666,0.1663,0.1663,0.1666,0.1665,0.1665,0.1666,0.1666,0.1667,0.1666,0.1668,0.1668,0.1667,0.1668,0.1666,0.1668,0.1667,0.1667,0.1667,0.1661,0.166,0.1656,0.1664,0.1664,0.1663,0,0.1659,0.166,0.1657,0.1659,0.1659,0.1658,0.1658,0.1658,0.1659,0.166,0.166,0.1661,0.166,0.1663,0.1661,0.1663,0.1662,0.1663,0.1663,0.1662,0.1665,0.1661,0.1655,0.1654,0.1663,0.1663,0.1663,0,0.1653,0.1653,0.1652,0.1652,0.1654,0.1654,0.1654,0.1655,0.1655,0.1656,0.1656,0.1656,0.1655,0.1655,0.1657,0.1659,0.1655,0.1658,0.1656,0.1656,0.1655,0.1655,0.1648,0.1654,0.1655,0.1655,0.1655,0,0.1648,0.1646,0.165,0.1649,0.1647,0.165,0.1648,0.1649,0.165,0.165,0.1652,0.1651,0.1654,0.1653,0.1654,0.1653,0.1653,0.1653,0.1654,0.1653,0.1653,0.1653,0.1653,0.1654,0.1654,0.1654,0.1654,0,0.1641,0.1643,0.1642,0.1644,0.1645,0.1643,0.1645,0.1645,0.1646,0.1645,0.1645,0.1647,0.1647,0.1649,0.1648,0.1649,0.1647,0.1648,0.1647,0.1647,0.1645,0.1645,0.1638,0.1638,0.1644,0.1644,0.1644,0,0.1637,0.1636,0.1638,0.1638,0.1639,0.1639,0.1639,0.1642,0.1642,0.1643,0.1642,0.1642,0.1642,0.1641,0.1642,0.1642,0.1643,0.1641,0.1643,0.1643,0.1643,0.1643,0.1643,0.164,0.164,0.164,0.164,0,0.163,0.1631,0.1631,0.1632,0.1632,0.1633,0.1634,0.1634,0.1636,0.1636,0.1636,0.1636,0.1636,0.1636,0.1637,0.1637,0.1639,0.1639,0.1639,0.1638,0.1638,0.1638,0.1646,0.1639,0.1639,0.1639,0.1639,0.1639,0.1624,0.1624,0.1626,0.1626,0.1627,0.1628,0.1627,0.1629,0.1629,0.1629,0.1631,0.1631,0.1632,0.1632,0.1633,0.1633,0.1634,0.1633,0.1633,0.1633,0.1632,0.1638,0.1633,0.1633,0.1633,0.1633,0.1633,0,0.1618,0.1619,0.1619,0.1621,0.1621,0.1623,0.1624,0.1624,0.1624,0.1625,0.1625,0.1625,0.1625,0.1627,0.1627,0.1627,0.1627,0.1627,0.1627,0.1627,0.1631,0.1632,0.1626,0.1626,0.1626,0.1626,0.1626,0.1626,0.1614,0.1613,0.1615,0.1615,0.1616,0.1616,0.1617,0.1617,0.1618,0.1618,0.1619,0.162,0.1621,0.1621,0.1622,0.1622,0.1622,0.1621,0.1621,0.1626,0.1626,0.1627,0.1627,0.1621,0.1621,0.1617,0.1617,0.1617]}]]